Погода в Разнежье

Россия / Нижегородская область     56°11′02″N   45°40′52″E
темп.,
°C
ветер,
м/с
пор.,
м/с
влажн.,
%
обл.,
%
осадки,
мм/ч
давл.,
гПа
погр.,
м
29 мая, вс
вс2900:00+9зюз5139484 0.2 1005649
03:00+7юз4129724 0.2 1006434
06:00+9юз412900 0.0 1008519
09:00+14юз59620 0.0 10091294
12:00+16зюз710515 0.8 10111919
15:00+16зюз79535 1.3 10111803
18:00+14юз48716 0.6 1012624
21:00+9юз388326 0.6 1013131
30 мая, пн
пн3000:00+7зюз39891 0.0 1015187
03:00+6юз310930 0.0 1016204
06:00+10зюз39780 0.0 1017307
09:00+15з47530 0.0 10181214
12:00+18з57424 0.0 10192203
15:00+19з574015 0.0 10192373
18:00+17зюз465611 0.0 1020736
21:00+11зюз2379100 0.0 102245
31 мая, вт
вт3100:00+10зюз228076 0.0 102234
03:00+8з128278 0.0 102315
06:00+12ю126999 0.0 1024103
09:00+18ююз225271 0.0 1024778
12:00+21ююз224222 0.0 10231875
15:00+21ююз3242100 0.0 10232010
18:00+19ю2460100 0.0 1023213
21:00+14юв227292 0.0 102319
1 июня, ср
ср100:00+14юв266988 0.0 1023127
03:00+11вюв2681100 0.0 1023117
06:00+14юв3872100 0.0 1023254
09:00+20ююв465971 0.0 1023722
12:00+22ююв465296 0.0 10221355
15:00+17ююз2681100 0.1 1022186
18:00+15вюв2392100 0.4 102175
21:00+15в2494100 0.7 1021103
2 июня, чт
чт200:00+14ю1195100 0.0 102010
03:00+13зюз119783 0.1 102112
06:00+15юз1193100 0.1 1020127
09:00+20юз1276100 0.1 1020668
12:00+22ю2372100 0.1 1019917
15:00+23юз2465100 0.2 10191115
18:00+23ю247958 1.6 1017384
21:00+18з41091100 5.1 1018297